Station CMAN4 - 8536110 - Cape May, NJ Image indicating link to RSS feed of recent meteorological observations for station CMAN4


Conditions at CMAN4 as of
(4:00 pm EDT)
2000 GMT on 05/22/2024:
     

Click on the graph icon in the table below to see a time series plot of the last five days of that observation.

5-day plot - Wind Direction Wind Direction (WDIR):SSE ( 150 deg true )
5-day plot - Wind Speed Wind Speed (WSPD): 13.0 kts
5-day plot - Wind Gust Wind Gust (GST): 18.1 kts
5-day plot - Atmospheric Pressure Atmospheric Pressure (PRES):29.94 in
5-day plot - Pressure Tendency Pressure Tendency (PTDY):-0.05 in ( Falling )
5-day plot - Air Temperature Air Temperature (ATMP): 70.0 °F
5-day plot - Water Temperature Water Temperature (WTMP): 64.4 °F
5-day plot - Wind Speed at 10 Meters Wind Speed at 10 meters (WSPD10M): 13.6 kts
5-day plot - Wind Speed at 20 Meters Wind Speed at 20 meters (WSPD20M): 13.6 kts
5-day plot -  Wind Speed, Wind Gust and Atmospheric Pressure Combined plot of Wind Speed, Gust, and Air Pressure
NOS Water Level Observation Network Water Level
Previous observations
TIME
(EDT)
5-day plot - Wind Direction
WDIR
 
5-day plot - Wind Speed
WSPD
kts
5-day plot - Wind Gust
GST
kts
5-day plot - Wave Height
WVHT
ft
5-day plot - Dominant Wave Period
DPD
sec
5-day plot - Average Wave Period
APD
sec
5-day plot - Mean Wave Direction
MWD
 
5-day plot - Atmospheric Pressure
PRES
in
5-day plot - Pressure Tendency
PTDY
in
5-day plot - Air Temperature
ATMP
°F
5-day plot - Water Temperature
WTMP
°F
5-day plot - Dew Point
DEWP
°F
5-day plot - Salinity
SAL
psu
5-day plot - Visibility
VIS
nmi
5-day plot - Tide (above MLLW)
TIDE
ft
2024-05-22 03:54 pm SE 13.0 17.1----29.95- 70.2 64.4----
2024-05-22 03:48 pmSSE 12.0 17.1----29.95- 70.2 64.4----
2024-05-22 03:42 pmSSE 11.1 15.0----29.95- 70.7 64.2----
2024-05-22 03:36 pmSSE 12.0 17.1----29.95- 70.2 64.0----
2024-05-22 03:30 pmSSE 11.1 15.0----29.96- 70.0 64.0----
2024-05-22 03:24 pm SE 8.9 17.1----29.96- 69.8 64.0----
2024-05-22 03:18 pmSSE 12.0 15.0----29.96- 69.6 63.9----
2024-05-22 03:12 pm SE 11.1 17.1----29.96- 69.6 63.9----
2024-05-22 03:06 pm SE 12.0 15.9----29.96- 69.3 63.9----
2024-05-22 03:00 pm SE 9.9 15.0----29.96-0.04 69.4 63.7----
2024-05-22 02:54 pm SE 9.9 15.9----29.96- 69.3 63.7----
2024-05-22 02:48 pm SE 8.9 15.9----29.96- 69.8 63.7----
2024-05-22 02:42 pm SE 9.9 15.9----29.96- 69.4 63.7----
2024-05-22 02:36 pm SE 8.9 14.0----29.96- 69.3 63.7----
2024-05-22 02:30 pm SE 8.9 15.0----29.96- 68.7 63.7----
2024-05-22 02:24 pm SE 11.1 15.0----29.97- 68.2 63.7----
2024-05-22 02:18 pmESE 9.9 14.0------- 63.7----
2024-05-22 02:12 pm SE 12.0 15.9------- 63.7----
2024-05-22 02:06 pm SE 9.9 14.0------- 63.7----
2024-05-22 02:00 pm SE 11.1 13.0------- 63.5----
2024-05-22 01:54 pmESE 11.1 13.0------- 63.3----
2024-05-22 01:48 pm SE 8.9 13.0------- 63.1----
2024-05-22 01:42 pm SE 11.1 13.0------- 63.1----
2024-05-22 01:36 pm SE 8.0 13.0------- 63.0----
2024-05-22 01:30 pm SE 8.9 12.0----29.98-------
2024-05-22 01:24 pmESE 9.9 12.0----29.99-------
2024-05-22 01:18 pm SE 9.9 12.0------- 62.8----
2024-05-22 01:12 pmESE 9.9 12.0------- 62.8----
2024-05-22 01:06 pmESE 8.9 11.1------- 62.8----
2024-05-22 01:00 pm SE 8.9 9.9----29.99-0.03- 62.6----
2024-05-22 12:54 pm SE 7.0 9.9----29.99-- 62.6----
2024-05-22 12:48 pmESE 8.9 9.9------- 62.6----
2024-05-22 12:42 pmESE 7.0 8.9------- 62.6----
2024-05-22 12:36 pmESE 6.0 8.9------- 62.6----
2024-05-22 12:30 pmESE 7.0 9.9------------
2024-05-22 12:24 pmESE 7.0 8.0------------
2024-05-22 12:18 pm SE 7.0 8.9------ 72.5 62.4----
2024-05-22 12:12 pmESE 8.0 9.9------ 71.4 62.2----
2024-05-22 12:06 pm SE 8.0 9.9------ 72.5 62.2----
2024-05-22 12:00 pmESE 7.0 8.9----30.00-0.03 72.1 62.2----
2024-05-22 11:54 am SE 5.1 8.0----30.00- 72.1 62.1----
2024-05-22 11:48 amESE 6.0 8.9----30.00- 71.6 62.1----
2024-05-22 11:42 am SE 6.0 8.9----30.01- 71.1 62.1----
2024-05-22 11:36 amESE 8.0 9.9----30.01- 70.2 62.1----
2024-05-22 11:30 amESE 7.0 8.9----30.01- 70.9 62.1----
2024-05-22 11:24 am SE 5.1 7.0----30.01- 70.5 62.1----
2024-05-22 11:18 am SE 5.1 8.0----30.02- 70.3 62.1----
2024-05-22 11:12 am SE 6.0 7.0----30.02- 69.6 62.1----
2024-05-22 11:06 am SE 5.1 7.0----30.02- 69.6 62.1----
2024-05-22 11:00 amESE 5.1 7.0----30.02-0.01 69.3 61.9----
2024-05-22 10:54 amESE 5.1 8.9----30.02- 68.4 61.9----
2024-05-22 10:48 amESE 6.0 7.0----30.02-- 61.9----
2024-05-22 10:42 am SE 6.0 8.0----30.03-- 61.9----
2024-05-22 10:36 am SE 5.1 8.0----30.03-- 61.9----
2024-05-22 10:30 amESE 6.0 8.0------------
2024-05-22 10:24 amESE 5.1 8.0------------
2024-05-22 10:18 amESE 6.0 7.0------------
2024-05-22 10:12 amESE 5.1 7.0------------
2024-05-22 10:06 amESE 6.0 7.0------------
2024-05-22 10:00 amESE 6.0 7.0----30.02+0.00 66.9 62.6----
2024-05-22 09:54 amESE 6.0 8.0----30.03- 66.6 62.4----
2024-05-22 09:48 am SE 5.1 7.0----30.03-- 62.4----
2024-05-22 09:42 amSSE 4.1 7.0----30.03-- 62.4----
2024-05-22 09:36 amSSE 4.1 7.0----30.03-- 62.4----
2024-05-22 09:30 amSSE 4.1 6.0------------
2024-05-22 09:24 am SE 5.1 6.0------------
2024-05-22 09:18 amSSE 6.0 7.0----30.04-- 62.4----
2024-05-22 09:12 am SE 6.0 8.9----30.04-- 62.4----
2024-05-22 09:06 amSSE 4.1 7.0----30.03-- 62.4----
2024-05-22 09:00 amSSE 5.1 7.0----30.03+0.00 66.4 62.4----
2024-05-22 08:54 amSSE 4.1 7.0----30.03- 66.4 62.4----
2024-05-22 08:48 am S 2.9 6.0----30.03- 66.2 62.4----
2024-05-22 08:42 amSSE 2.9 6.0----30.03- 66.0 62.4----
2024-05-22 08:36 am S 2.9 5.1----30.03- 65.5 62.4----
2024-05-22 08:30 amSSE 2.9 6.0----30.03- 65.5 62.4----
2024-05-22 08:24 am S 4.1 5.1----30.03- 65.1 62.4----
2024-05-22 08:18 am S 1.9 5.1----30.04- 65.1 62.4----
2024-05-22 08:12 am S 2.9 6.0----30.04- 64.9 62.4----
2024-05-22 08:06 am S 2.9 7.0----30.04- 64.6 62.4----
2024-05-22 08:00 am S 2.9 5.1----30.03+0.02 64.2 62.2----
2024-05-22 07:54 am S 4.1 5.1----30.03- 64.2 62.2----
2024-05-22 07:48 amSSE 4.1 5.1----30.03- 63.9 62.2----
2024-05-22 07:42 am S 2.9 4.1----30.03- 64.0 62.2----
2024-05-22 07:36 amSSE 2.9 4.1----30.03- 63.7 62.1----
2024-05-22 07:30 am S 4.1 5.1----30.02- 63.3 62.1----
2024-05-22 07:24 amSSE 2.9 5.1----30.02- 62.8 62.1----
2024-05-22 07:18 am SE 2.9 4.1----30.02- 62.6 62.1----
2024-05-22 07:12 am E 2.9 5.1----30.02- 62.2 62.1----
2024-05-22 07:06 amESE 1.9 5.1----30.02- 61.9 62.1----
2024-05-22 07:00 amSSE 4.1 6.0----30.02+0.03 61.3 61.9----
2024-05-22 06:54 am SE 4.1 4.1----30.02- 60.6 61.9----
2024-05-22 06:48 amESE 2.9 2.9----30.02- 60.1 61.9----
2024-05-22 06:42 amESE 1.9 1.9----30.02- 60.1 61.9----
2024-05-22 06:36 am SE 1.9 2.9----30.02- 59.4 61.7----
2024-05-22 06:30 amESE 1.9 1.9----30.02- 59.7 61.7----
2024-05-22 06:24 am E 1.0 1.9----30.02- 59.7 61.7----
2024-05-22 06:18 am E 1.9 2.9----30.02- 59.0 61.7----
2024-05-22 06:12 amSSE 2.9 4.1----30.02- 59.4 61.7----
2024-05-22 06:06 am S 2.9 4.1----30.02- 59.5 61.7----
2024-05-22 06:00 amSSE 1.0 1.9----30.03+0.03 58.8 61.7----
2024-05-22 05:54 am- 0.0 1.9----30.02- 59.9 61.5----
2024-05-22 05:48 am SE 1.0 2.9----30.02- 59.9 61.5----
2024-05-22 05:42 am S 2.9 4.1----30.01- 60.1 61.7----
2024-05-22 05:36 am S 2.9 5.1----30.02- 59.9 61.7----
2024-05-22 05:30 am S 4.1 6.0----30.02- 59.9 61.5----
2024-05-22 05:24 am S 4.1 5.1----30.01- 60.1 61.5----
2024-05-22 05:18 am S 4.1 5.1----30.01- 60.1 61.5----
2024-05-22 05:12 am S 4.1 5.1----30.01- 60.3 61.5----
2024-05-22 05:06 am S 4.1 6.0----30.01- 60.1 61.5----
2024-05-22 05:00 am S 4.1 5.1----30.01+0.02 60.1 61.5----
2024-05-22 04:54 am S 4.1 6.0----30.01- 60.1 61.5----
2024-05-22 04:48 am S 4.1 6.0----30.01- 60.3 61.5----
2024-05-22 04:42 am S 5.1 7.0----30.01- 60.3 61.5----
2024-05-22 04:36 am S 6.0 7.0----30.01- 60.1 61.5----
2024-05-22 04:30 am S 5.1 7.0----30.01- 60.1 61.5----
2024-05-22 04:24 am S 2.9 6.0----30.01- 60.1 61.7----
2024-05-22 04:18 am S 4.1 7.0----30.00- 60.3 61.7----
2024-05-22 04:12 am S 5.1 7.0----30.00- 60.4 61.7----
2024-05-22 04:06 am S 6.0 8.0----30.00- 60.6 61.7----
2024-05-22 04:00 am S 4.1 5.1----29.99+0.00 60.3 61.7----
2024-05-22 03:54 am S 4.1 6.0----29.99- 60.3 61.7----
2024-05-22 03:48 am S 4.1 6.0----30.00- 60.3 61.7----
2024-05-22 03:42 am S 4.1 5.1----30.00- 60.3 61.7----
2024-05-22 03:36 am S 4.1 6.0----30.00- 60.3 61.9----
2024-05-22 03:30 am S 4.1 5.1----29.99- 60.6 61.9----
2024-05-22 03:24 amSSW 4.1 5.1----30.00- 60.4 61.9----
2024-05-22 03:18 amSSW 4.1 5.1----30.00- 60.3 61.9----
2024-05-22 03:12 amSSW 4.1 4.1----30.00- 60.1 62.2----
2024-05-22 03:06 am S 2.9 5.1----30.00- 60.1 62.2----
2024-05-22 03:00 am S 2.9 4.1----30.00-0.02 60.1 62.4----
2024-05-22 02:54 am S 1.9 5.1----30.00- 60.1 62.4----
2024-05-22 02:48 am S 4.1 6.0----30.00- 60.1 62.4----
2024-05-22 02:42 am S 4.1 5.1----30.00- 60.1 62.4----
2024-05-22 02:36 amSSE 5.1 8.0----30.00- 60.1 62.4----
2024-05-22 02:30 am S 5.1 6.0----30.00- 60.3 62.4----
2024-05-22 02:24 am S 5.1 7.0----29.99- 60.3 62.4----
2024-05-22 02:18 am S 6.0 8.0----30.00- 60.3 62.4----
2024-05-22 02:12 am S 5.1 8.0----30.00- 60.4 62.4----
2024-05-22 02:06 am S 5.1 8.0----30.00- 60.4 62.4----
2024-05-22 02:00 am S 5.1 7.0----29.99-0.01 60.3 62.4----
2024-05-22 01:54 amSSE 5.1 7.0----29.99- 60.3 62.6----
2024-05-22 01:48 amSSE 2.9 6.0----29.99- 60.4 62.6----
2024-05-22 01:42 amSSE 4.1 7.0----29.99- 60.4 62.6----
2024-05-22 01:36 amSSE 5.1 7.0----29.99- 60.4 62.6----
2024-05-22 01:30 amSSE 5.1 8.9----29.99- 60.4 62.6----
2024-05-22 01:24 amSSE 5.1 7.0----29.99- 60.6 62.8----
2024-05-22 01:18 amSSE 5.1 7.0----30.00- 60.6 62.8----
2024-05-22 01:12 amSSE 5.1 7.0----30.00- 60.6 62.8----
2024-05-22 01:06 amSSE 5.1 7.0----30.00- 60.6 62.8----
2024-05-22 01:00 amSSE 4.1 6.0----30.00+0.00 60.8 63.0----
2024-05-22 12:54 amSSE 6.0 7.0----30.00- 61.0 63.0----
2024-05-22 12:48 am S 5.1 8.0----30.01- 61.2 63.0----
2024-05-22 12:42 amSSE 5.1 7.0----30.01- 61.2 63.0----
2024-05-22 12:36 amSSE 5.1 7.0----30.01- 61.0 63.1----
2024-05-22 12:30 amSSE 4.1 6.0----30.01- 60.6 63.1----
2024-05-22 12:24 amSSE 4.1 6.0----30.01- 60.8 63.1----
2024-05-22 12:18 amSSE 4.1 6.0----30.01- 60.8 63.1----
2024-05-22 12:12 am S 5.1 7.0----30.01- 61.2 63.1----
2024-05-22 12:06 am S 5.1 7.0----30.01- 61.2 63.3----
2024-05-22 12:00 am S 5.1 7.0----30.02+0.02 61.2 63.3----
2024-05-21 11:54 pm S 5.1 7.0----30.02- 61.0 63.3----
2024-05-21 11:48 pm S 6.0 8.0----30.02- 61.2 63.3----
2024-05-21 11:42 pm S 6.0 8.0----30.02- 61.2 63.5----
2024-05-21 11:36 pm S 6.0 8.0----30.02- 61.2 63.5----
2024-05-21 11:30 pm S 7.0 8.9----30.02- 61.2 63.5----
2024-05-21 11:24 pm S 6.0 8.9----30.02- 61.3 63.7----
2024-05-21 11:18 pm S 7.0 12.0----30.01- 61.7 63.7----
2024-05-21 11:12 pm S 6.0 9.9----30.01- 61.7 63.7----
2024-05-21 11:06 pm S 8.0 11.1----30.01- 61.9 63.7----
2024-05-21 11:00 pm S 7.0 9.9----30.01+0.01 61.9 63.7----
2024-05-21 10:54 pm S 8.0 12.0----30.00- 61.9 63.9----
2024-05-21 10:48 pmSSE 8.0 12.0----30.00- 62.1 63.9----
2024-05-21 10:42 pm S 7.0 12.0----30.00- 61.9 63.7----
2024-05-21 10:36 pmSSE 8.9 12.0----30.00- 62.1 63.7----
2024-05-21 10:30 pmSSE 8.0 12.0----30.01- 62.1 63.5----
2024-05-21 10:24 pmSSE 7.0 11.1----30.00- 62.1 63.3----
2024-05-21 10:18 pmSSE 8.9 13.0----30.00- 62.2 63.0----
2024-05-21 10:12 pmSSE 8.9 12.0----30.00- 62.2 62.8----
2024-05-21 10:06 pmSSE 8.0 13.0----30.00- 62.2 62.8----
2024-05-21 10:00 pmSSE 8.9 12.0----30.00-0.01 62.4 62.8----
2024-05-21 09:54 pmSSE 9.9 12.0----30.00- 62.4 64.4----
2024-05-21 09:48 pmSSE 8.0 11.1----30.00- 62.4 64.6----
2024-05-21 09:42 pmSSE 8.0 11.1----30.00- 62.4 64.6----
2024-05-21 09:36 pmSSE 8.9 12.0----30.00- 62.4 64.6----
2024-05-21 09:30 pmSSE 8.9 12.0----30.00- 62.4 64.6----
2024-05-21 09:24 pmSSE 8.9 12.0----30.00- 62.2 64.8----
2024-05-21 09:18 pmSSE 8.9 12.0----30.00- 62.2 64.8----
2024-05-21 09:12 pmSSE 8.9 12.0----29.99- 62.2 64.8----
2024-05-21 09:06 pmSSE 9.9 12.0----29.99- 62.4 64.8----
2024-05-21 09:00 pmSSE 9.9 13.0----29.99+0.00 62.2 64.8----
2024-05-21 08:54 pmSSE 9.9 12.0----30.00- 62.2 64.8----
2024-05-21 08:48 pmSSE 8.9 12.0----30.00- 62.2 64.8----
2024-05-21 08:42 pmSSE 8.9 13.0----30.00- 61.7 64.8----
2024-05-21 08:36 pmSSE 9.9 13.0----30.00- 61.9 64.8----
2024-05-21 08:30 pmSSE 9.9 12.0----30.00- 61.7 64.8----
2024-05-21 08:24 pmSSE 8.9 12.0----30.00- 61.7 64.8----
2024-05-21 08:18 pmSSE 9.9 13.0----30.00- 62.1 64.8----
2024-05-21 08:12 pmSSE 8.9 11.1----30.00- 62.6 64.8----
2024-05-21 08:06 pm SE 8.0 11.1----29.99- 63.0 64.8----
2024-05-21 08:00 pm SE 8.0 12.0----30.00+0.00 63.1 64.8----
2024-05-21 07:54 pm SE 8.0 11.1----30.00- 63.3 64.9----
2024-05-21 07:48 pm SE 8.0 9.9----30.00- 63.5 64.9----
2024-05-21 07:42 pm SE 8.9 11.1----30.00- 63.7 64.9----
2024-05-21 07:36 pm SE 9.9 12.0----30.00- 63.7 64.9----
2024-05-21 07:30 pm SE 8.9 11.1----30.00- 63.9 64.9----
2024-05-21 07:24 pm SE 8.9 13.0----30.00- 63.9 64.9----
2024-05-21 07:00 pm SE 5.1 8.9----30.01+0.00 64.4 64.9----
2024-05-21 06:54 pm SE 7.0 9.9----30.01- 64.6 64.9----
2024-05-21 06:48 pm SE 7.0 8.9----30.01- 64.9 64.9----
2024-05-21 06:42 pm SE 6.0 8.9----30.01- 65.1 64.9----
2024-05-21 06:36 pm SE 8.9 9.9----30.01- 65.1 64.9----
2024-05-21 06:30 pm SE 8.0 9.9----30.01- 65.5 64.9----
2024-05-21 06:24 pm SE 7.0 8.9----30.01- 65.8 64.9----
2024-05-21 06:18 pm SE 6.0 12.0----30.00- 65.8 64.9----
2024-05-21 06:12 pm SE 8.9 11.1----30.00- 65.5 64.8----
2024-05-21 06:06 pm SE 6.0 8.9----30.00- 65.8 64.8----
2024-05-21 06:00 pm SE 6.0 9.9----30.00-0.01 66.2 64.8----
2024-05-21 05:54 pm SE 7.0 9.9----30.00- 66.2 64.8----
2024-05-21 05:48 pm SE 8.0 9.9----29.99- 66.2 64.8----
2024-05-21 05:42 pmESE 8.0 11.1----29.99- 66.6 64.6----
2024-05-21 05:36 pm SE 7.0 11.1----29.99- 66.9 64.4----
2024-05-21 05:30 pmESE 9.9 13.0----29.99-- 64.4----
2024-05-21 05:24 pm SE 8.9 13.0----29.99-- 64.4----
2024-05-21 05:18 pm SE 11.1 14.0----29.99-- 64.4----
2024-05-21 05:12 pm SE 8.9 12.0----29.99-- 64.2----
2024-05-21 05:06 pm SE 11.1 13.0----29.99-- 64.2----
2024-05-21 05:00 pmESE 8.9 11.1----30.00-0.03 66.4 64.0----
2024-05-21 04:54 pmESE 8.9 11.1----30.00- 66.4 63.9----
2024-05-21 04:48 pmESE 8.9 13.0----30.00-- 63.9----
2024-05-21 04:42 pm SE 8.0 11.1----30.00-- 63.7----
2024-05-21 04:36 pmSSE 9.9 13.0----30.01-- 63.7----
2024-05-21 04:30 pm SE 9.9 12.0----30.01-------
2024-05-21 04:24 pmESE 11.1 13.0----30.01-------
2024-05-21 04:18 pm SE 9.9 12.0----30.01-- 63.7----
2024-05-21 04:12 pm SE 9.9 12.0----30.01-- 63.9----
2024-05-21 04:06 pmSSE 8.9 11.1----30.01-- 63.9----
2024-05-21 04:00 pm SE 8.9 11.1----30.01-0.03 66.2 63.9----
2024-05-21 03:54 pm SE 8.0 11.1----30.01- 66.2 63.9----